Location: Madden
(51.3728°N, 114.3297°W)
Time: 17:42:44
(UTC+00:00)

CUTE-I - Pass Details

Date: 12 December 2023
Orbit: 807 x 823 km, 98.7° (Epoch: 03 March)

Event Time Altitude Azimuth Distance (km) Brightness Sun altitude
Rises 00:31:06 0° 155° (SSE) 3,320 ? -9.1°
Reaches altitude 10° 00:33:26 10° 153° (SSE) 2,395 ? -9.4°
Maximum altitude 00:38:42 70° 71° (ENE) 869 ? -10.2°
Drops below altitude 10° 00:44:02 10° 349° (NNW) 2,423 ? -10.9°
Sets 00:46:24 0° 347° (NNW) 3,362 ? -11.3°
